Location: Aufkirchen
(47.9603°N, 11.3653°E)
Time: 22:23:04
(UTC+02:00)

Altair - Pass Details

Date: 06 August 2021
Orbit: 1501 x 1682 km, 47.2° (Epoch: 22 September)

Event Time Altitude Azimuth Distance (km) Brightness Sun altitude
Exits shadow 01:58:56 39° 209° (SSW) 2,170 7.8 -24.8°
Maximum altitude 02:02:26 59° 152° (SSE) 1,745 7.5 -24.7°
Drops below altitude 10° 02:11:26 10° 76° (ENE) 3,672 9.8 -24.4°
Sets 02:14:28 0° 73° (ENE) 4,645 10.4 -24.2°
